Flag for Argentina Weather past 2 weeks in Zárate, Buenos Aires, Argentina

Now
50 °F

Clear.


Feels Like: 48 °F
Forecast: N/A
Wind: 6 mph from Northeast

Location: Buenos Aires Airport

Current Time: Jul 4, 2015 at 8:27:35 PM

Latest Report: Jul 4, 2015 at 8:00 PM


Visibility: 10 mi

Pressure: 30.24 "Hg

Humidity: 67%

Dew point: 39 °F

Location of ZárateLocation

Historic Weather in Zárate — Graph

°F

Zárate temperature yesterday

Maximum temperature yesterday: 55 °F (at 12:00 AM)
Minimum temperature yesterday: 46 °F (at 11:00 PM)
Average temperature yesterday: 52 °F

Past Weeks' High & Low Weather Summary

 TemperatureHumidityPressure
High66 °F (Jun 29, 1:00 PM)100% (Jun 27, 8:00 PM)30.51 "Hg (Jun 27, 8:00 PM)
Low41 °F (Jun 23, 4:00 AM)40% (Jun 22, 9:00 PM)29.77 "Hg (Jun 29, 4:00 PM)
Average54 °F76%30.14 "Hg
* Reported Jun 19 7:00 PM — Jul 4 7:00 PM, Zárate, Weather by CustomWeather, © 2015

Note: Actual official high and low records may vary slightly from our data, if they occured in-between our weather recording intervals... More about our weather records

Advertising

Zárate weather history for previous 24 hours

 ConditionsComfort  
Time TempWeatherWind HumidityBarometerVisibility
7:00 PM
Sat, Jul 4
48 °FClear.6 mph71%30.24 "Hg10 mi
6:00 PM48 °FClear.3 mph66%30.24 "Hg10 mi
5:00 PM50 °FClear.5 mph67%30.24 "Hg10 mi
4:00 PM50 °FSunny.5 mph67%30.24 "Hg10 mi
3:00 PM50 °FSunny.5 mph54%30.27 "Hg10 mi
2:00 PM50 °FSunny.5 mph54%30.27 "Hg10 mi
1:00 PM48 °FSunny.5 mph54%30.30 "Hg10 mi
12:00 PM48 °FPassing clouds.6 mph50%30.30 "HgN/A
11:00 AM46 °FSunny.2 mph57%30.30 "Hg10 mi
10:00 AM45 °FSunny.5 mph71%30.27 "Hg10 mi
9:00 AM43 °FSunny.5 mph76%30.27 "Hg10 mi
8:00 AM41 °FSunny.5 mph81%30.27 "Hg10 mi
7:00 AM43 °FClear.5 mph71%30.24 "Hg10 mi
6:00 AM43 °FClear.7 mph71%30.24 "Hg10 mi
5:00 AM43 °FClear.9 mph87%30.24 "Hg10 mi
4:00 AM45 °FPassing clouds.12 mph81%30.24 "HgN/A
3:00 AM46 °FPassing clouds.14 mph76%30.24 "HgN/A
2:00 AM46 °FPassing clouds.14 mph76%30.21 "HgN/A
1:00 AM46 °FPassing clouds.14 mph76%30.21 "HgN/A
12:00 AM46 °FPassing clouds.12 mph76%30.21 "HgN/A
11:00 PM
Fri, Jul 3
46 °FPassing clouds.12 mph76%30.18 "HgN/A
10:00 PM48 °FPassing clouds.17 mph76%30.18 "HgN/A
9:00 PM48 °FPassing clouds.14 mph76%30.15 "HgN/A
8:00 PM50 °FPassing clouds.12 mph67%30.12 "HgN/A
Weather by CustomWeather, © 2015

See weather overviewHow to use our weather pages